Year,Month,Day,Hour,Minute,Value (Times are PST for temperature in C)
2015,04,23,06,16,8.10
2015,04,23,06,17,8.10
2015,04,23,06,18,8.10
2015,04,23,06,19,8.10
2015,04,23,06,20,8.10
2015,04,23,06,21,8.10
2015,04,23,06,22,8.10
2015,04,23,06,23,8.10
2015,04,23,06,24,8.10
2015,04,23,06,25,8.10
2015,04,23,06,26,8.10
2015,04,23,06,27,8.10
2015,04,23,06,28,8.10
2015,04,23,06,29,8.10
2015,04,23,06,30,8.10
2015,04,23,06,31,8.10
2015,04,23,06,32,8.10
2015,04,23,06,33,8.10
2015,04,23,06,34,8.10
2015,04,23,06,35,8.10
2015,04,23,06,36,8.10
2015,04,23,06,37,8.10
2015,04,23,06,38,8.10
2015,04,23,06,39,8.10
2015,04,23,06,40,8.10
2015,04,23,06,41,8.10
2015,04,23,06,42,8.10
2015,04,23,06,43,8.10
2015,04,23,06,44,8.10
2015,04,23,06,45,8.10
2015,04,23,06,46,8.60
2015,04,23,06,47,8.60
2015,04,23,06,48,8.60
2015,04,23,06,49,8.60
2015,04,23,06,50,8.60
2015,04,23,06,51,8.60
2015,04,23,06,52,8.60
2015,04,23,06,53,8.60
2015,04,23,06,54,8.60
2015,04,23,06,55,8.60
2015,04,23,06,56,8.60
2015,04,23,06,57,8.60
2015,04,23,06,58,8.60
2015,04,23,06,59,8.60
2015,04,23,07,00,8.60
2015,04,23,07,01,8.60
2015,04,23,07,02,8.60
2015,04,23,07,03,8.60
2015,04,23,07,04,8.60
2015,04,23,07,05,8.60
2015,04,23,07,06,8.60
2015,04,23,07,07,8.60
2015,04,23,07,08,8.60
2015,04,23,07,09,8.60
2015,04,23,07,10,8.60
2015,04,23,07,11,8.60
2015,04,23,07,12,8.60
2015,04,23,07,13,8.60
2015,04,23,07,14,8.60
2015,04,23,07,15,8.60
2015,04,23,07,16,8.40
2015,04,23,07,17,8.40
2015,04,23,07,18,8.40
2015,04,23,07,19,8.40
2015,04,23,07,20,8.40
2015,04,23,07,21,8.40
2015,04,23,07,22,8.40
2015,04,23,07,23,8.40
2015,04,23,07,24,8.40
2015,04,23,07,25,8.40
2015,04,23,07,26,8.40
2015,04,23,07,27,8.40
2015,04,23,07,28,8.40
2015,04,23,07,29,8.40
2015,04,23,07,30,8.40
2015,04,23,07,31,8.40
2015,04,23,07,32,8.40
2015,04,23,07,33,8.40
2015,04,23,07,34,8.40
2015,04,23,07,35,8.40
2015,04,23,07,36,8.40
2015,04,23,07,37,8.40
2015,04,23,07,38,8.40
2015,04,23,07,39,8.40
2015,04,23,07,40,8.40
2015,04,23,07,41,8.40
2015,04,23,07,42,8.40
2015,04,23,07,43,8.40
2015,04,23,07,44,8.40
2015,04,23,07,45,8.40
2015,04,23,07,46,8.40
2015,04,23,07,47,8.40
2015,04,23,07,48,8.40
2015,04,23,07,49,8.40
2015,04,23,07,50,8.40
2015,04,23,07,51,8.40
2015,04,23,07,52,8.40
2015,04,23,07,53,8.40
2015,04,23,07,54,8.40
2015,04,23,07,55,8.40
2015,04,23,07,56,8.40
2015,04,23,07,57,8.40
2015,04,23,07,58,8.40
2015,04,23,07,59,8.40
2015,04,23,08,00,8.40
2015,04,23,08,01,8.40
2015,04,23,08,02,8.40
2015,04,23,08,03,8.40
2015,04,23,08,04,8.40
2015,04,23,08,05,8.40
2015,04,23,08,06,8.40
2015,04,23,08,07,8.40
2015,04,23,08,08,8.40
2015,04,23,08,09,8.40
2015,04,23,08,10,8.40
2015,04,23,08,11,8.40
2015,04,23,08,12,8.40
2015,04,23,08,13,8.40
2015,04,23,08,14,8.40
2015,04,23,08,15,8.40
2015,04,23,08,16,8.30
2015,04,23,08,17,8.30
2015,04,23,08,18,8.30
2015,04,23,08,19,8.30
2015,04,23,08,20,8.30
2015,04,23,08,21,8.30
2015,04,23,08,22,8.30
2015,04,23,08,23,8.30
2015,04,23,08,24,8.30
2015,04,23,08,25,8.30
2015,04,23,08,26,8.30
2015,04,23,08,27,8.30
2015,04,23,08,28,8.30
2015,04,23,08,29,8.30
2015,04,23,08,30,8.30
2015,04,23,08,31,8.30
2015,04,23,08,32,8.30
2015,04,23,08,33,8.30
2015,04,23,08,34,8.30
2015,04,23,08,35,8.30
2015,04,23,08,36,8.30
2015,04,23,08,37,8.30
2015,04,23,08,38,8.30
2015,04,23,08,39,8.30
2015,04,23,08,40,8.30
2015,04,23,08,41,8.30
2015,04,23,08,42,8.30
2015,04,23,08,43,8.30
2015,04,23,08,44,8.30
2015,04,23,08,45,8.30
2015,04,23,08,46,8.00
2015,04,23,08,47,8.00
2015,04,23,08,48,8.00
2015,04,23,08,49,8.00
2015,04,23,08,50,8.00
2015,04,23,08,51,8.00
2015,04,23,08,52,8.00
2015,04,23,08,53,8.00
2015,04,23,08,54,8.00
2015,04,23,08,55,8.00
2015,04,23,08,56,8.00
2015,04,23,08,57,8.00
2015,04,23,08,58,8.00
2015,04,23,08,59,8.00
2015,04,23,09,00,8.00
2015,04,23,09,01,8.00
2015,04,23,09,02,8.00
2015,04,23,09,03,8.00
2015,04,23,09,04,8.00
2015,04,23,09,05,8.00
2015,04,23,09,06,8.00
2015,04,23,09,07,8.00
2015,04,23,09,08,8.00
2015,04,23,09,09,8.00
2015,04,23,09,10,8.00
2015,04,23,09,11,8.00
2015,04,23,09,12,8.00
2015,04,23,09,13,8.00
2015,04,23,09,14,8.00
2015,04,23,09,15,8.00
2015,04,23,09,16,8.10
2015,04,23,09,17,8.10
2015,04,23,09,18,8.10
2015,04,23,09,19,8.10
2015,04,23,09,20,8.10
2015,04,23,09,21,8.10
2015,04,23,09,22,8.10
2015,04,23,09,23,8.10
2015,04,23,09,24,8.10
2015,04,23,09,25,8.10
2015,04,23,09,26,8.10
2015,04,23,09,27,8.10
2015,04,23,09,28,8.10
2015,04,23,09,29,8.10
2015,04,23,09,30,8.10
2015,04,23,09,31,8.10
2015,04,23,09,32,8.10
2015,04,23,09,33,8.10
2015,04,23,09,34,8.10
2015,04,23,09,35,8.10
2015,04,23,09,36,8.10
2015,04,23,09,37,8.10
2015,04,23,09,38,8.10
2015,04,23,09,39,8.10
2015,04,23,09,40,8.10
2015,04,23,09,41,8.10
2015,04,23,09,42,8.10
2015,04,23,09,43,8.10
2015,04,23,09,44,8.10
2015,04,23,09,45,8.10
2015,04,23,09,46,8.00
2015,04,23,09,47,8.00
2015,04,23,09,48,8.00
2015,04,23,09,49,8.00
2015,04,23,09,50,8.00
2015,04,23,09,51,8.00
2015,04,23,09,52,8.00
2015,04,23,09,53,8.00
2015,04,23,09,54,8.00
2015,04,23,09,55,8.00
2015,04,23,09,56,8.00
2015,04,23,09,57,8.00
2015,04,23,09,58,8.00
2015,04,23,09,59,8.00
2015,04,23,10,00,8.00
2015,04,23,10,01,8.00
2015,04,23,10,02,8.00
2015,04,23,10,03,8.00
2015,04,23,10,04,8.00
2015,04,23,10,05,8.00
2015,04,23,10,06,8.00
2015,04,23,10,07,8.00
2015,04,23,10,08,8.00
2015,04,23,10,09,8.00
2015,04,23,10,10,8.00
2015,04,23,10,11,8.00
2015,04,23,10,12,8.00
2015,04,23,10,13,8.00
2015,04,23,10,14,8.00
2015,04,23,10,15,8.00
2015,04,23,10,16,8.20
2015,04,23,10,17,8.20
2015,04,23,10,18,8.20
2015,04,23,10,19,8.20
2015,04,23,10,20,8.20
2015,04,23,10,21,8.20
2015,04,23,10,22,8.20
2015,04,23,10,23,8.20
2015,04,23,10,24,8.20
2015,04,23,10,25,8.20
2015,04,23,10,26,8.20
2015,04,23,10,27,8.20
2015,04,23,10,28,8.20
2015,04,23,10,29,8.20
2015,04,23,10,30,8.20
2015,04,23,10,31,8.20
2015,04,23,10,32,8.20
2015,04,23,10,33,8.20
2015,04,23,10,34,8.20
2015,04,23,10,35,8.20
2015,04,23,10,36,8.20
2015,04,23,10,37,8.20
2015,04,23,10,38,8.20
2015,04,23,10,39,8.20
2015,04,23,10,40,8.20
2015,04,23,10,41,8.20
2015,04,23,10,42,8.20
2015,04,23,10,43,8.20
2015,04,23,10,44,8.20
2015,04,23,10,45,8.20
2015,04,23,10,46,8.70
2015,04,23,10,47,8.70
2015,04,23,10,48,8.70
2015,04,23,10,49,8.70
2015,04,23,10,50,8.70
2015,04,23,10,51,8.70
2015,04,23,10,52,8.70
2015,04,23,10,53,8.70
2015,04,23,10,54,8.70
2015,04,23,10,55,8.70
2015,04,23,10,56,8.70
2015,04,23,10,57,8.70
2015,04,23,10,58,8.70
2015,04,23,10,59,8.70
2015,04,23,11,00,8.70
2015,04,23,11,01,8.70
2015,04,23,11,02,8.70
2015,04,23,11,03,8.70
2015,04,23,11,04,8.70
2015,04,23,11,05,8.70
2015,04,23,11,06,8.70
2015,04,23,11,07,8.70
2015,04,23,11,08,8.70
2015,04,23,11,09,8.70
2015,04,23,11,10,8.70
2015,04,23,11,11,8.70
2015,04,23,11,12,8.70
2015,04,23,11,13,8.70
2015,04,23,11,14,8.70
2015,04,23,11,15,8.70
2015,04,23,11,16,9.10
2015,04,23,11,17,9.10
2015,04,23,11,18,9.10
2015,04,23,11,19,9.10
2015,04,23,11,20,9.10
2015,04,23,11,21,9.10
2015,04,23,11,22,9.10
2015,04,23,11,23,9.10
2015,04,23,11,24,9.10
2015,04,23,11,25,9.10
2015,04,23,11,26,9.10
2015,04,23,11,27,9.10
2015,04,23,11,28,9.10
2015,04,23,11,29,9.10
2015,04,23,11,30,9.10
2015,04,23,11,31,9.10
2015,04,23,11,32,9.10
2015,04,23,11,33,9.10
2015,04,23,11,34,9.10
2015,04,23,11,35,9.10
2015,04,23,11,36,9.10
2015,04,23,11,37,9.10
2015,04,23,11,38,9.10
2015,04,23,11,39,9.10
2015,04,23,11,40,9.10
2015,04,23,11,41,9.10
2015,04,23,11,42,9.10
2015,04,23,11,43,9.10
2015,04,23,11,44,9.10
2015,04,23,11,45,9.10
2015,04,23,11,46,9.20
2015,04,23,11,47,9.20
2015,04,23,11,48,9.20
2015,04,23,11,49,9.20
2015,04,23,11,50,9.20
2015,04,23,11,51,9.20
2015,04,23,11,52,9.20
2015,04,23,11,53,9.20
2015,04,23,11,54,9.20
2015,04,23,11,55,9.20
2015,04,23,11,56,9.20
2015,04,23,11,57,9.20
2015,04,23,11,58,9.20
2015,04,23,11,59,9.20
2015,04,23,12,00,9.20
2015,04,23,12,01,9.20
2015,04,23,12,02,9.20
2015,04,23,12,03,9.20
2015,04,23,12,04,9.20
2015,04,23,12,05,9.20
2015,04,23,12,06,9.20
2015,04,23,12,07,9.20
2015,04,23,12,08,9.20
2015,04,23,12,09,9.20
2015,04,23,12,10,9.20
2015,04,23,12,11,9.20
2015,04,23,12,12,9.20
2015,04,23,12,13,9.20
2015,04,23,12,14,9.20
2015,04,23,12,15,9.20
2015,04,23,12,16,9.40
2015,04,23,12,17,9.40
2015,04,23,12,18,9.40
2015,04,23,12,19,9.40
2015,04,23,12,20,9.40
2015,04,23,12,21,9.40
2015,04,23,12,22,9.40
2015,04,23,12,23,9.40
2015,04,23,12,24,9.40
2015,04,23,12,25,9.40
2015,04,23,12,26,9.40
2015,04,23,12,27,9.40
2015,04,23,12,28,9.40
2015,04,23,12,29,9.40
2015,04,23,12,30,9.40
2015,04,23,12,31,9.40
2015,04,23,12,32,9.40
2015,04,23,12,33,9.40
2015,04,23,12,34,9.40
2015,04,23,12,35,9.40
2015,04,23,12,36,9.40
2015,04,23,12,37,9.40
2015,04,23,12,38,9.40
2015,04,23,12,39,9.40
2015,04,23,12,40,9.40
2015,04,23,12,41,9.40
2015,04,23,12,42,9.40
2015,04,23,12,43,9.40
2015,04,23,12,44,9.40
2015,04,23,12,45,9.40
2015,04,23,12,46,9.60
2015,04,23,12,47,9.60
2015,04,23,12,48,9.60
2015,04,23,12,49,9.60
2015,04,23,12,50,9.60
2015,04,23,12,51,9.60
2015,04,23,12,52,9.60
2015,04,23,12,53,9.60
2015,04,23,12,54,9.60
2015,04,23,12,55,9.60
2015,04,23,12,56,9.60
2015,04,23,12,57,9.60
2015,04,23,12,58,9.60
2015,04,23,12,59,9.60
2015,04,23,13,00,9.60
2015,04,23,13,01,9.60
2015,04,23,13,02,9.60
2015,04,23,13,03,9.60
2015,04,23,13,04,9.60
2015,04,23,13,05,9.60
2015,04,23,13,06,9.60
2015,04,23,13,07,9.60
2015,04,23,13,08,9.60
2015,04,23,13,09,9.60
2015,04,23,13,10,9.60
2015,04,23,13,11,9.60
2015,04,23,13,12,9.60
2015,04,23,13,13,9.60
2015,04,23,13,14,9.60
2015,04,23,13,15,9.60
2015,04,23,13,16,9.70
2015,04,23,13,17,9.70
2015,04,23,13,18,9.70
2015,04,23,13,19,9.70
2015,04,23,13,20,9.70
2015,04,23,13,21,9.70
2015,04,23,13,22,9.70
2015,04,23,13,23,9.70
2015,04,23,13,24,9.70
2015,04,23,13,25,9.70
2015,04,23,13,26,9.70
2015,04,23,13,27,9.70
2015,04,23,13,28,9.70
2015,04,23,13,29,9.70
2015,04,23,13,30,9.70
2015,04,23,13,31,9.70
2015,04,23,13,32,9.70
2015,04,23,13,33,9.70
2015,04,23,13,34,9.70
2015,04,23,13,35,9.70
2015,04,23,13,36,9.70
2015,04,23,13,37,9.70
2015,04,23,13,38,9.70
2015,04,23,13,39,9.70
2015,04,23,13,40,9.70
2015,04,23,13,41,9.70
2015,04,23,13,42,9.70
2015,04,23,13,43,9.70
2015,04,23,13,44,9.70
2015,04,23,13,45,9.70
2015,04,23,13,46,9.80
2015,04,23,13,47,9.80
2015,04,23,13,48,9.80
2015,04,23,13,49,9.80
2015,04,23,13,50,9.80
2015,04,23,13,51,9.80
2015,04,23,13,52,9.80
2015,04,23,13,53,9.80
2015,04,23,13,54,9.80
2015,04,23,13,55,9.80
2015,04,23,13,56,9.80
2015,04,23,13,57,9.80
2015,04,23,13,58,9.80
2015,04,23,13,59,9.80
2015,04,23,14,00,9.80
2015,04,23,14,01,9.80
2015,04,23,14,02,9.80
2015,04,23,14,03,9.80
2015,04,23,14,04,9.80
2015,04,23,14,05,9.80
2015,04,23,14,06,9.80
2015,04,23,14,07,9.80
2015,04,23,14,08,9.80
2015,04,23,14,09,9.80
2015,04,23,14,10,9.80
2015,04,23,14,11,9.80
2015,04,23,14,12,9.80
2015,04,23,14,13,9.80
2015,04,23,14,14,9.80
2015,04,23,14,15,9.80
2015,04,23,14,16,9.80
2015,04,23,14,17,9.80
2015,04,23,14,18,9.80
2015,04,23,14,19,9.80
2015,04,23,14,20,9.80
2015,04,23,14,21,9.80
2015,04,23,14,22,9.80
2015,04,23,14,23,9.80
2015,04,23,14,24,9.80
2015,04,23,14,25,9.80
2015,04,23,14,26,9.80
2015,04,23,14,27,9.80
2015,04,23,14,28,9.80
2015,04,23,14,29,9.80
2015,04,23,14,30,9.80
2015,04,23,14,31,9.80
2015,04,23,14,32,9.80
2015,04,23,14,33,9.80
2015,04,23,14,34,9.80
2015,04,23,14,35,9.80
2015,04,23,14,36,9.80
2015,04,23,14,37,9.80
2015,04,23,14,38,9.80
2015,04,23,14,39,9.80
2015,04,23,14,40,9.80
2015,04,23,14,41,9.80
2015,04,23,14,42,9.80
2015,04,23,14,43,9.80
2015,04,23,14,44,9.80
2015,04,23,14,45,9.80
2015,04,23,14,46,9.80
2015,04,23,14,47,9.80
2015,04,23,14,48,9.80
2015,04,23,14,49,9.80
2015,04,23,14,50,9.80
2015,04,23,14,51,9.80
2015,04,23,14,52,9.80
2015,04,23,14,53,9.80
2015,04,23,14,54,9.80
2015,04,23,14,55,9.80
2015,04,23,14,56,9.80
2015,04,23,14,57,9.80
2015,04,23,14,58,9.80
2015,04,23,14,59,9.80
2015,04,23,15,00,9.80
2015,04,23,15,01,9.80
2015,04,23,15,02,9.80
2015,04,23,15,03,9.80
2015,04,23,15,04,9.80
2015,04,23,15,05,9.80
2015,04,23,15,06,9.80
2015,04,23,15,07,9.80
2015,04,23,15,08,9.80
2015,04,23,15,09,9.80
2015,04,23,15,10,9.80
2015,04,23,15,11,9.80
2015,04,23,15,12,9.80
2015,04,23,15,13,9.80
2015,04,23,15,14,9.80
2015,04,23,15,15,9.80
2015,04,23,15,16,9.40
2015,04,23,15,17,9.40
2015,04,23,15,18,9.40
2015,04,23,15,19,9.40
2015,04,23,15,20,9.40
2015,04,23,15,21,9.40
2015,04,23,15,22,9.40
2015,04,23,15,23,9.40
2015,04,23,15,24,9.40
2015,04,23,15,25,9.40
2015,04,23,15,26,9.40
2015,04,23,15,27,9.40
2015,04,23,15,28,9.40
2015,04,23,15,29,9.40
2015,04,23,15,30,9.40
2015,04,23,15,31,9.40
2015,04,23,15,32,9.40
2015,04,23,15,33,9.40
2015,04,23,15,34,9.40
2015,04,23,15,35,9.40
2015,04,23,15,36,9.40
2015,04,23,15,37,9.40
2015,04,23,15,38,9.40
2015,04,23,15,39,9.40
2015,04,23,15,40,9.40
2015,04,23,15,41,9.40
2015,04,23,15,42,9.40
2015,04,23,15,43,9.40
2015,04,23,15,44,9.40
2015,04,23,15,45,9.40
2015,04,23,15,46,9.60
2015,04,23,15,47,9.60
2015,04,23,15,48,9.60
2015,04,23,15,49,9.60
2015,04,23,15,50,9.60
2015,04,23,15,51,9.60
2015,04,23,15,52,9.60
2015,04,23,15,53,9.60
2015,04,23,15,54,9.60
2015,04,23,15,55,9.60
2015,04,23,15,56,9.60
2015,04,23,15,57,9.60
2015,04,23,15,58,9.60
2015,04,23,15,59,9.60
2015,04,23,16,00,9.60
2015,04,23,16,01,9.60
2015,04,23,16,02,9.60
2015,04,23,16,03,9.60
2015,04,23,16,04,9.60
2015,04,23,16,05,9.60
2015,04,23,16,06,9.60
2015,04,23,16,07,9.60
2015,04,23,16,08,9.60
2015,04,23,16,09,9.60
2015,04,23,16,10,9.60
2015,04,23,16,11,9.60
2015,04,23,16,12,9.60
2015,04,23,16,13,9.60
2015,04,23,16,14,9.60
2015,04,23,16,15,9.60
2015,04,23,16,16,10.10
2015,04,23,16,17,10.10
2015,04,23,16,18,10.10
2015,04,23,16,19,10.10
2015,04,23,16,20,10.10
2015,04,23,16,21,10.10
2015,04,23,16,22,10.10
2015,04,23,16,23,10.10
2015,04,23,16,24,10.10
2015,04,23,16,25,10.10
2015,04,23,16,26,10.10
2015,04,23,16,27,10.10
2015,04,23,16,28,10.10
2015,04,23,16,29,10.10
2015,04,23,16,30,10.10
2015,04,23,16,31,10.10
2015,04,23,16,32,10.10
2015,04,23,16,33,10.10
2015,04,23,16,34,10.10
2015,04,23,16,35,10.10
2015,04,23,16,36,10.10
2015,04,23,16,37,10.10
2015,04,23,16,38,10.10
2015,04,23,16,39,10.10
2015,04,23,16,40,10.10
2015,04,23,16,41,10.10
2015,04,23,16,42,10.10
2015,04,23,16,43,10.10
2015,04,23,16,44,10.10
2015,04,23,16,45,10.10
2015,04,23,16,46,9.40
2015,04,23,16,47,9.40
2015,04,23,16,48,9.40
2015,04,23,16,49,9.40
2015,04,23,16,50,9.40
2015,04,23,16,51,9.40
2015,04,23,16,52,9.40
2015,04,23,16,53,9.40
2015,04,23,16,54,9.40
2015,04,23,16,55,9.40
2015,04,23,16,56,9.40
2015,04,23,16,57,9.40
2015,04,23,16,58,9.40
2015,04,23,16,59,9.40
2015,04,23,17,00,9.40
2015,04,23,17,01,9.40
2015,04,23,17,02,9.40
2015,04,23,17,03,9.40
2015,04,23,17,04,9.40
2015,04,23,17,05,9.40
2015,04,23,17,06,9.40
2015,04,23,17,07,9.40
2015,04,23,17,08,9.40
2015,04,23,17,09,9.40
2015,04,23,17,10,9.40
2015,04,23,17,11,9.40
2015,04,23,17,12,9.40
2015,04,23,17,13,9.40
2015,04,23,17,14,9.40
2015,04,23,17,15,9.40
2015,04,23,17,16,9.10
2015,04,23,17,17,9.10
2015,04,23,17,18,9.10
2015,04,23,17,19,9.10
2015,04,23,17,20,9.10
2015,04,23,17,21,9.10
2015,04,23,17,22,9.10
2015,04,23,17,23,9.10
2015,04,23,17,24,9.10
2015,04,23,17,25,9.10
2015,04,23,17,26,9.10
2015,04,23,17,27,9.10
2015,04,23,17,28,9.10
2015,04,23,17,29,9.10
2015,04,23,17,30,9.10
2015,04,23,17,31,9.10
2015,04,23,17,32,9.10
2015,04,23,17,33,9.10
2015,04,23,17,34,9.10
2015,04,23,17,35,9.10
2015,04,23,17,36,9.10
2015,04,23,17,37,9.10
2015,04,23,17,38,9.10
2015,04,23,17,39,9.10
2015,04,23,17,40,9.10
2015,04,23,17,41,9.10
2015,04,23,17,42,9.10
2015,04,23,17,43,9.10
2015,04,23,17,44,9.10
2015,04,23,17,45,9.10
2015,04,23,17,46,9.20
2015,04,23,17,47,9.20
2015,04,23,17,48,9.20
2015,04,23,17,49,9.20
2015,04,23,17,50,9.20
2015,04,23,17,51,9.20
2015,04,23,17,52,9.20
2015,04,23,17,53,9.20
2015,04,23,17,54,9.20
2015,04,23,17,55,9.20
2015,04,23,17,56,9.20
2015,04,23,17,57,9.20
2015,04,23,17,58,9.20
2015,04,23,17,59,9.20
2015,04,23,18,00,9.20
2015,04,23,18,01,9.20
2015,04,23,18,02,9.20
2015,04,23,18,03,9.20
2015,04,23,18,04,9.20
2015,04,23,18,05,9.20
2015,04,23,18,06,9.20
2015,04,23,18,07,9.20
2015,04,23,18,08,9.20
2015,04,23,18,09,9.20
2015,04,23,18,10,9.20
2015,04,23,18,11,9.20
2015,04,23,18,12,9.20
2015,04,23,18,13,9.20
2015,04,23,18,14,9.20
2015,04,23,18,15,9.20
2015,04,23,18,16,9.10
2015,04,23,18,17,9.10
2015,04,23,18,18,9.10
2015,04,23,18,19,9.10
2015,04,23,18,20,9.10
2015,04,23,18,21,9.10
2015,04,23,18,22,9.10
2015,04,23,18,23,9.10
2015,04,23,18,24,9.10
2015,04,23,18,25,9.10
2015,04,23,18,26,9.10
2015,04,23,18,27,9.10
2015,04,23,18,28,9.10
2015,04,23,18,29,9.10
2015,04,23,18,30,9.10
2015,04,23,18,31,9.10
2015,04,23,18,32,9.10
2015,04,23,18,33,9.10
2015,04,23,18,34,9.10
2015,04,23,18,35,9.10
2015,04,23,18,36,9.10
2015,04,23,18,37,9.10
2015,04,23,18,38,9.10
2015,04,23,18,39,9.10
2015,04,23,18,40,9.10
2015,04,23,18,41,9.10
2015,04,23,18,42,9.10
2015,04,23,18,43,9.10
2015,04,23,18,44,9.10
2015,04,23,18,45,9.10
2015,04,23,18,46,8.90
2015,04,23,18,47,8.90
2015,04,23,18,48,8.90
2015,04,23,18,49,8.90
2015,04,23,18,50,8.90
2015,04,23,18,51,8.90
2015,04,23,18,52,8.90
2015,04,23,18,53,8.90
2015,04,23,18,54,8.90
2015,04,23,18,55,8.90
2015,04,23,18,56,8.90
2015,04,23,18,57,8.90
2015,04,23,18,58,8.90
2015,04,23,18,59,8.90
2015,04,23,19,00,8.90
2015,04,23,19,01,8.90
2015,04,23,19,02,8.90
2015,04,23,19,03,8.90
2015,04,23,19,04,8.90
2015,04,23,19,05,8.90
2015,04,23,19,06,8.90
2015,04,23,19,07,8.90
2015,04,23,19,08,8.90
2015,04,23,19,09,8.90
2015,04,23,19,10,8.90
2015,04,23,19,11,8.90
2015,04,23,19,12,8.90
2015,04,23,19,13,8.90
2015,04,23,19,14,8.90
2015,04,23,19,15,8.90
2015,04,23,19,16,8.70
2015,04,23,19,17,8.70
2015,04,23,19,18,8.70
2015,04,23,19,19,8.70
2015,04,23,19,20,8.70
2015,04,23,19,21,8.70
2015,04,23,19,22,8.70
2015,04,23,19,23,8.70
2015,04,23,19,24,8.70
2015,04,23,19,25,8.70
2015,04,23,19,26,8.70
2015,04,23,19,27,8.70
2015,04,23,19,28,8.70
2015,04,23,19,29,8.70
2015,04,23,19,30,8.70
2015,04,23,19,31,8.70
2015,04,23,19,32,8.70
2015,04,23,19,33,8.70
2015,04,23,19,34,8.70
2015,04,23,19,35,8.70
2015,04,23,19,36,8.70
2015,04,23,19,37,8.70
2015,04,23,19,38,8.70
2015,04,23,19,39,8.70
2015,04,23,19,40,8.70
2015,04,23,19,41,8.70
2015,04,23,19,42,8.70
2015,04,23,19,43,8.70
2015,04,23,19,44,8.70
2015,04,23,19,45,8.70
2015,04,23,19,46,9.20
2015,04,23,19,47,9.20
2015,04,23,19,48,9.20
2015,04,23,19,49,9.20
2015,04,23,19,50,9.20
2015,04,23,19,51,9.20
2015,04,23,19,52,9.20
2015,04,23,19,53,9.20
2015,04,23,19,54,9.20
2015,04,23,19,55,9.20
2015,04,23,19,56,9.20
2015,04,23,19,57,9.20
2015,04,23,19,58,9.20
2015,04,23,19,59,9.20
2015,04,23,20,00,9.20
2015,04,23,20,01,9.20
2015,04,23,20,02,9.20
2015,04,23,20,03,9.20
2015,04,23,20,04,9.20
2015,04,23,20,05,9.20
2015,04,23,20,06,9.20
2015,04,23,20,07,9.20
2015,04,23,20,08,9.20
2015,04,23,20,09,9.20
2015,04,23,20,10,9.20
2015,04,23,20,11,9.20
2015,04,23,20,12,9.20
2015,04,23,20,13,9.20
2015,04,23,20,14,9.20
2015,04,23,20,15,9.20
2015,04,23,20,16,8.80
2015,04,23,20,17,8.80
2015,04,23,20,18,8.80
2015,04,23,20,19,8.80
2015,04,23,20,20,8.80
2015,04,23,20,21,8.80
2015,04,23,20,22,8.80
2015,04,23,20,23,8.80
2015,04,23,20,24,8.80
2015,04,23,20,25,8.80
2015,04,23,20,26,8.80
2015,04,23,20,27,8.80
2015,04,23,20,28,8.80
2015,04,23,20,29,8.80
2015,04,23,20,30,8.80
2015,04,23,20,31,8.80
2015,04,23,20,32,8.80
2015,04,23,20,33,8.80
2015,04,23,20,34,8.80
2015,04,23,20,35,8.80
2015,04,23,20,36,8.80
2015,04,23,20,37,8.80
2015,04,23,20,38,8.80
2015,04,23,20,39,8.80
2015,04,23,20,40,8.80
2015,04,23,20,41,8.80
2015,04,23,20,42,8.80
2015,04,23,20,43,8.80
2015,04,23,20,44,8.80
2015,04,23,20,45,8.80
2015,04,23,20,46,8.50
2015,04,23,20,47,8.50
2015,04,23,20,48,8.50
2015,04,23,20,49,8.50
2015,04,23,20,50,8.50
2015,04,23,20,51,8.50
2015,04,23,20,52,8.50
2015,04,23,20,53,8.50
2015,04,23,20,54,8.50
2015,04,23,20,55,8.50
2015,04,23,20,56,8.50
2015,04,23,20,57,8.50
2015,04,23,20,58,8.50
2015,04,23,20,59,8.50
2015,04,23,21,00,8.50
2015,04,23,21,01,8.50
2015,04,23,21,02,8.50
2015,04,23,21,03,8.50
2015,04,23,21,04,8.50
2015,04,23,21,05,8.50
2015,04,23,21,06,8.50
2015,04,23,21,07,8.50
2015,04,23,21,08,8.50
2015,04,23,21,09,8.50
2015,04,23,21,10,8.50
2015,04,23,21,11,8.50
2015,04,23,21,12,8.50
2015,04,23,21,13,8.50
2015,04,23,21,14,8.50
2015,04,23,21,15,8.50
2015,04,23,21,16,8.20
2015,04,23,21,17,8.20
2015,04,23,21,18,8.20
2015,04,23,21,19,8.20
2015,04,23,21,20,8.20
2015,04,23,21,21,8.20
2015,04,23,21,22,8.20
2015,04,23,21,23,8.20
2015,04,23,21,24,8.20
2015,04,23,21,25,8.20
2015,04,23,21,26,8.20
2015,04,23,21,27,8.20
2015,04,23,21,28,8.20
2015,04,23,21,29,8.20
2015,04,23,21,30,8.20
2015,04,23,21,31,8.20
2015,04,23,21,32,8.20
2015,04,23,21,33,8.20
2015,04,23,21,34,8.20
2015,04,23,21,35,8.20
2015,04,23,21,36,8.20
2015,04,23,21,37,8.20
2015,04,23,21,38,8.20
2015,04,23,21,39,8.20
2015,04,23,21,40,8.20
2015,04,23,21,41,8.20
2015,04,23,21,42,8.20
2015,04,23,21,43,8.20
2015,04,23,21,44,8.20
2015,04,23,21,45,8.20
2015,04,23,21,46,8.10
2015,04,23,21,47,8.10
2015,04,23,21,48,8.10
2015,04,23,21,49,8.10
2015,04,23,21,50,8.10
2015,04,23,21,51,8.10
2015,04,23,21,52,8.10
2015,04,23,21,53,8.10
2015,04,23,21,54,8.10
2015,04,23,21,55,8.10
2015,04,23,21,56,8.10
2015,04,23,21,57,8.10
2015,04,23,21,58,8.10
2015,04,23,21,59,8.10
2015,04,23,22,00,8.10
2015,04,23,22,01,8.10
2015,04,23,22,02,8.10
2015,04,23,22,03,8.10
2015,04,23,22,04,8.10
2015,04,23,22,05,8.10
2015,04,23,22,06,8.10
2015,04,23,22,07,8.10
2015,04,23,22,08,8.10
2015,04,23,22,09,8.10
2015,04,23,22,10,8.10
2015,04,23,22,11,8.10
2015,04,23,22,12,8.10
2015,04,23,22,13,8.10
2015,04,23,22,14,8.10
2015,04,23,22,15,8.10
2015,04,23,22,16,7.80
2015,04,23,22,17,7.80
2015,04,23,22,18,7.80
2015,04,23,22,19,7.80
2015,04,23,22,20,7.80
2015,04,23,22,21,7.80
2015,04,23,22,22,7.80
2015,04,23,22,23,7.80
2015,04,23,22,24,7.80
2015,04,23,22,25,7.80
2015,04,23,22,26,7.80
2015,04,23,22,27,7.80
2015,04,23,22,28,7.80
2015,04,23,22,29,7.80
2015,04,23,22,30,7.80
2015,04,23,22,31,7.80
2015,04,23,22,32,7.80
2015,04,23,22,33,7.80
2015,04,23,22,34,7.80
2015,04,23,22,35,7.80
2015,04,23,22,36,7.80
2015,04,23,22,37,7.80
2015,04,23,22,38,7.80
2015,04,23,22,39,7.80
2015,04,23,22,40,7.80
2015,04,23,22,41,7.80
2015,04,23,22,42,7.80
2015,04,23,22,43,7.80
2015,04,23,22,44,7.80
2015,04,23,22,45,7.80
2015,04,23,22,46,7.70
2015,04,23,22,47,7.70
2015,04,23,22,48,7.70
2015,04,23,22,49,7.70
2015,04,23,22,50,7.70
2015,04,23,22,51,7.70
2015,04,23,22,52,7.70
2015,04,23,22,53,7.70
2015,04,23,22,54,7.70
2015,04,23,22,55,7.70
2015,04,23,22,56,7.70
2015,04,23,22,57,7.70
2015,04,23,22,58,7.70
2015,04,23,22,59,7.70
2015,04,23,23,00,7.70
2015,04,23,23,01,7.70
2015,04,23,23,02,7.70
2015,04,23,23,03,7.70
2015,04,23,23,04,7.70
2015,04,23,23,05,7.70
2015,04,23,23,06,7.70
2015,04,23,23,07,7.70
2015,04,23,23,08,7.70
2015,04,23,23,09,7.70
2015,04,23,23,10,7.70
2015,04,23,23,11,7.70
2015,04,23,23,12,7.70
2015,04,23,23,13,7.70
2015,04,23,23,14,7.70
2015,04,23,23,15,7.70
2015,04,23,23,16,7.80
2015,04,23,23,17,7.80
2015,04,23,23,18,7.80
2015,04,23,23,19,7.80
2015,04,23,23,20,7.80
2015,04,23,23,21,7.80
2015,04,23,23,22,7.80
2015,04,23,23,23,7.80
2015,04,23,23,24,7.80
2015,04,23,23,25,7.80
2015,04,23,23,26,7.80
2015,04,23,23,27,7.80
2015,04,23,23,28,7.80
2015,04,23,23,29,7.80
2015,04,23,23,30,7.80
2015,04,23,23,31,7.80
2015,04,23,23,32,7.80
2015,04,23,23,33,7.80
2015,04,23,23,34,7.80
2015,04,23,23,35,7.80
2015,04,23,23,36,7.80
2015,04,23,23,37,7.80
2015,04,23,23,38,7.80
2015,04,23,23,39,7.80
2015,04,23,23,40,7.80
2015,04,23,23,41,7.80
2015,04,23,23,42,7.80
2015,04,23,23,43,7.80
2015,04,23,23,44,7.80
2015,04,23,23,45,7.80
2015,04,23,23,46,7.90
2015,04,23,23,47,7.90
2015,04,23,23,48,7.90
2015,04,23,23,49,7.90
2015,04,23,23,50,7.90
2015,04,23,23,51,7.90
2015,04,23,23,52,7.90
2015,04,23,23,53,7.90
2015,04,23,23,54,7.90
2015,04,23,23,55,7.90
2015,04,23,23,56,7.90
2015,04,23,23,57,7.90
2015,04,23,23,58,7.90
2015,04,23,23,59,7.90
